Auburn, IN

7:07 PM EDT on August 23, 2019 (GMT -0400)
Auburn

Weather History for KGWB - May, 2019

Change the Weather History Date:

Friday, May 17, 2019

  Actual Average (WUND) Record (WUND)
Temperature  
Mean Temperature 66 °F -  
Max Temperature 73 °F - - (-1)
Min Temperature 59 °F - - (-1)
Cooling Degree Days 2    
Growing Degree Days 16 (Base 50)    
Moisture  
Dew Point 63 °F    
Average Humidity 92    
Maximum Humidity 100    
Minimum Humidity 78    
Precipitation  
Precipitation 0.49 in - - ()
Sea Level Pressure  
Sea Level Pressure 29.84 in    
Wind  
Wind Speed 3 mph (West)    
Max Wind Speed 12 mph    
Max Gust Speed 17 mph    
Visibility 7 miles    
Events Rain    
Averages and records for this station are not official NWS values.
T = Trace of Precipitation, MM = Missing Value Source: NWS Daily Summary

Daily Weather History Graph

Daily Weather History Graph

Search for Another Location

Airport or City:

Astronomy

May. 17, 2019 Rise Set
Actual Time 6:19 AM EDT 8:53 PM EDT
Civil Twilight 5:48 AM EDT 9:25 PM EDT
Nautical Twilight 5:08 AM EDT 10:05 PM EDT
Astronomical Twilight 4:24 AM EDT 10:49 PM EDT
Moon 7:39 PM EDT (5/17) 5:52 AM EDT (5/17)
Length of Visible Light 15h 37m
Length of Day
14h 33m
Waxing Gibbous, 98% of the Moon is Illuminated
May 17
Waxing Gibbous
May 18
Full
May 26
Last Quarter
Jun 3
New
Jun 10
First Quarter

Hourly Weather History & Observations

Time (EDT) Temp. Dew Point Humidity Pressure Visibility Wind Dir Wind Speed Gust Speed Precip Events Conditions
12:15 AM 62.6 °F 62.6 °F 100% 29.77 in 10.0 mi ENE 5.8 mph - 0.04 in Rain Light Rain
12:35 AM 62.6 °F 62.6 °F 100% 29.76 in 1.8 mi Calm Calm - 0.20 in Rain Rain
12:55 AM 62.6 °F 62.6 °F 100% 29.76 in 10.0 mi Calm Calm - 0.20 in   Mostly Cloudy
1:15 AM 62.6 °F 62.6 °F 100% 29.75 in 10.0 mi Calm Calm - N/A   Overcast
1:35 AM 62.6 °F 62.6 °F 100% 29.76 in 2.0 mi Calm Calm - 0.12 in Rain Light Rain
1:55 AM 62.6 °F 62.6 °F 100% 29.75 in 7.0 mi Calm Calm - 0.12 in Rain Rain
2:15 AM 62.6 °F 62.6 °F 100% 29.74 in 10.0 mi South 4.6 mph - 0.01 in Rain Light Rain
2:35 AM 62.6 °F 62.6 °F 100% 29.76 in 10.0 mi SSW 3.5 mph - 0.01 in   Mostly Cloudy
2:55 AM 62.6 °F 62.6 °F 100% 29.75 in 7.0 mi Calm Calm - 0.01 in   Mostly Cloudy
3:15 AM 60.8 °F 60.8 °F 100% 29.73 in 7.0 mi Calm Calm - N/A   Scattered Clouds
3:35 AM 62.6 °F 62.6 °F 100% 29.74 in 3.0 mi SSE 3.5 mph - 0.04 in Rain Heavy Rain
3:55 AM 62.6 °F 62.6 °F 100% 29.73 in 5.0 mi South 3.5 mph - 0.04 in   Overcast
4:15 AM 62.6 °F 62.6 °F 100% 29.75 in 4.0 mi Calm Calm - 0.01 in   Overcast
4:35 AM 62.6 °F 62.6 °F 100% 29.79 in 4.0 mi SW 3.5 mph - 0.01 in Rain Light Rain
4:55 AM 60.8 °F 60.8 °F 100% 29.77 in 2.5 mi Calm Calm - 0.04 in Rain Rain
5:15 AM 60.8 °F 60.8 °F 100% 29.75 in 2.5 mi SSW 4.6 mph - 0.03 in Rain Light Rain
5:40 AM 62.6 °F 62.6 °F 100% 29.76 in 4.0 mi SW 3.5 mph - 0.03 in   Scattered Clouds
6:00 AM 62.6 °F 62.6 °F 100% 29.78 in 4.0 mi WSW 3.5 mph - N/A   Clear
6:15 AM 62.6 °F 62.6 °F 100% 29.78 in 5.0 mi Calm Calm - N/A   Scattered Clouds
6:35 AM 62.6 °F 62.6 °F 100% 29.78 in 5.0 mi Calm Calm - N/A   Scattered Clouds
6:55 AM 60.8 °F 60.8 °F 100% 29.76 in 1.0 mi Calm Calm - N/A   Mist
7:15 AM 60.8 °F 60.8 °F 100% 29.77 in 1.0 mi SSW 3.5 mph - N/A   Mist
7:35 AM 62.6 °F 62.6 °F 100% 29.80 in 3.0 mi SW 4.6 mph - N/A   Clear
7:55 AM 62.6 °F 62.6 °F 100% 29.80 in 1.8 mi SW 3.5 mph - N/A   Mist
8:10 AM 62.6 °F 62.6 °F 100% 29.80 in 3.0 mi Calm Calm - N/A   Clear
8:39 AM 64.4 °F 64.4 °F 100% 29.80 in 3.0 mi Calm Calm - N/A   Clear
8:55 AM 64.4 °F 64.4 °F 100% 29.80 in 3.0 mi SSW 3.5 mph - N/A   Mostly Cloudy
9:15 AM 64.4 °F 64.4 °F 100% 29.80 in 4.0 mi Calm Calm - N/A   Scattered Clouds
9:35 AM 66.2 °F 64.4 °F 94% 29.81 in 7.0 mi Calm Calm - N/A   Scattered Clouds
9:55 AM 66.2 °F 64.4 °F 94% 29.81 in 7.0 mi Calm Calm - N/A   Overcast
10:15 AM 66.2 °F 64.4 °F 94% 29.83 in 10.0 mi Calm Calm - N/A   Overcast
10:35 AM 68.0 °F 64.4 °F 88% 29.83 in 10.0 mi WNW 4.6 mph - N/A   Overcast
10:55 AM 68.0 °F 64.4 °F 88% 29.84 in 7.0 mi WNW 4.6 mph - N/A   Overcast
11:15 AM 68.0 °F 64.4 °F 88% 29.84 in 7.0 mi West 4.6 mph - N/A   Scattered Clouds
11:35 AM 68.0 °F 64.4 °F 88% 29.85 in 10.0 mi WSW 6.9 mph - N/A   Mostly Cloudy
11:55 AM 69.8 °F 64.4 °F 83% 29.85 in 10.0 mi West 5.8 mph - N/A   Overcast
12:15 PM 69.8 °F 64.4 °F 83% 29.86 in 10.0 mi West 6.9 mph - N/A   Overcast
12:35 PM 69.8 °F 64.4 °F 83% 29.86 in 10.0 mi West 5.8 mph - N/A   Scattered Clouds
12:55 PM 73.4 °F 66.2 °F 78% 29.86 in 10.0 mi West 9.2 mph - N/A   Scattered Clouds
1:15 PM 73.4 °F 66.2 °F 78% 29.86 in 10.0 mi NW 11.5 mph - N/A   Scattered Clouds
1:55 PM 69.8 °F 64.4 °F 83% 29.88 in 10.0 mi NW 10.4 mph - N/A   Mostly Cloudy
2:15 PM 69.8 °F 64.4 °F 83% 29.88 in 10.0 mi WNW 8.1 mph - N/A   Scattered Clouds
2:30 PM 69.8 °F 64.4 °F 83% 29.88 in 10.0 mi WNW 8.1 mph 16.1 mph N/A   Scattered Clouds
2:55 PM 68.0 °F 62.6 °F 83% 29.88 in 7.0 mi WNW 6.9 mph - N/A   Light Drizzle
3:15 PM 68.0 °F 62.6 °F 83% 29.90 in 7.0 mi West 11.5 mph 17.3 mph N/A   Mostly Cloudy
3:35 PM 69.8 °F 62.6 °F 78% 29.89 in 10.0 mi WNW 10.4 mph - N/A   Mostly Cloudy
3:55 PM 69.8 °F 62.6 °F 78% 29.89 in 10.0 mi WNW 8.1 mph - N/A   Scattered Clouds
4:15 PM 69.8 °F 62.6 °F 78% 29.88 in 10.0 mi NW 6.9 mph 16.1 mph N/A   Clear
4:35 PM 69.8 °F 62.6 °F 78% 29.88 in 10.0 mi WNW 6.9 mph - N/A   Clear
4:55 PM 69.8 °F 62.6 °F 78% 29.87 in 10.0 mi NW 4.6 mph - N/A   Clear
5:15 PM 69.8 °F 62.6 °F 78% 29.86 in 10.0 mi NNW 3.5 mph - N/A   Clear
5:35 PM 69.8 °F 62.6 °F 78% 29.85 in 10.0 mi Calm Calm - N/A   Scattered Clouds
5:55 PM 69.8 °F 62.6 °F 78% 29.86 in 10.0 mi West 3.5 mph - N/A   Clear
6:15 PM 69.8 °F 62.6 °F 78% 29.86 in 10.0 mi West 3.5 mph - N/A   Scattered Clouds
6:35 PM 69.8 °F 62.6 °F 78% 29.89 in 10.0 mi WSW 3.5 mph - N/A   Mostly Cloudy
6:55 PM 69.8 °F 62.6 °F 78% 29.90 in 10.0 mi WSW 3.5 mph - N/A   Mostly Cloudy
7:15 PM 68.0 °F 62.6 °F 83% 29.90 in 7.0 mi North 5.8 mph - N/A   Overcast
7:35 PM 68.0 °F 62.6 °F 83% 29.90 in 7.0 mi NNW 6.9 mph - N/A   Overcast
7:55 PM 66.2 °F 62.6 °F 88% 29.88 in 7.0 mi NNE 4.6 mph - N/A   Mostly Cloudy
8:15 PM 64.4 °F 62.6 °F 94% 29.90 in 7.0 mi Calm Calm - N/A   Mostly Cloudy
8:35 PM 64.4 °F 62.6 °F 94% 29.91 in 7.0 mi Calm Calm - N/A   Mostly Cloudy
8:55 PM 64.4 °F 62.6 °F 94% 29.91 in 7.0 mi NE 3.5 mph - N/A Rain Light Rain
9:15 PM 64.4 °F 62.6 °F 94% 29.92 in 7.0 mi Calm Calm - N/A Rain Light Rain
9:35 PM 62.6 °F 62.6 °F 100% 29.92 in 4.0 mi ENE 3.5 mph - 0.02 in Rain Rain
9:55 PM 62.6 °F 62.6 °F 100% 29.92 in 4.0 mi Calm Calm - 0.02 in Rain Light Rain
10:15 PM 62.6 °F 62.6 °F 100% 29.93 in 3.0 mi Calm Calm - N/A Rain Light Rain
10:35 PM 62.6 °F 62.6 °F 100% 29.93 in 2.0 mi Calm Calm - 0.02 in Rain Light Rain
10:55 PM 62.6 °F 62.6 °F 100% 29.93 in 3.0 mi ENE 3.5 mph - 0.03 in Rain Rain
11:15 PM 60.8 °F 60.8 °F 100% 29.95 in 5.0 mi ENE 6.9 mph - N/A Rain Light Rain
11:35 PM 60.8 °F 59.0 °F 94% 29.95 in 7.0 mi ENE 6.9 mph - N/A   Overcast
11:55 PM 59.0 °F 59.0 °F 100% 29.94 in 7.0 mi ESE 8.1 mph - N/A   Mostly Cloudy